User: anonymous   Login
Location: Unspecified
(50.1700°N, 6.8600°E)
Time: 01:05:05
(UTC+00:00)
Language:

Cosmos 2263 - Orbit

View from above orbital plane
View from above orbital plane
View from above satellite
View from above satellite

Ground track
Ground track

The orbit data is extracted from the following two-line orbital elements,

1 22802U 93059A   19294.62692391 +.00000102 +00000-0 +80181-4 0  9998
2 22802 070.9241 321.6594 0022310 022.9121 337.2990 14.13178942346123
Epoch (UTC): 21 October 2019 15:02:46
Eccentricity: 0.0022310
inclination: 70.9241°
perigee height: 832 km
apogee height: 864 km
right ascension of ascending node: 321.6594°
argument of perigee: 22.9121°
revolutions per day: 14.13178942
mean anomaly at epoch: 337.2990°
orbit number at epoch: 34612

The dashed part of the orbit path shows where the satellite is in the earth's shadow,  

DLR